Charleston, SC

5:54 PM EST on February 13, 2016 (GMT -0500)
Charleston Executive

Weather History for KJZI - May, 2014

Change the Weather History Date:

Wednesday, May 21, 2014

  Actual Average (KCHS) Record (KCHS)
Temperature  
Mean Temperature 72 °F 74 °F  
Max Temperature 84 °F 84 °F 99 °F (1938)
Min Temperature 60 °F 63 °F 45 °F (2002)
Degree Days  
Heating Degree Days 0 0  
Month to date heating degree days 8  
Since 1 July heating degree days 1971  
Cooling Degree Days 7 9  
Month to date cooling degree days 142  
Year to date cooling degree days 260  
Growing Degree Days 22 (Base 50)    
Moisture  
Dew Point 62 °F    
Average Humidity 69    
Maximum Humidity 88    
Minimum Humidity 48    
Precipitation  
Precipitation 0.00 in 0.10 in 1.41 in (2013)
Month to date precipitation 1.90  
Year to date precipitation 15.19  
Sea Level Pressure  
Sea Level Pressure 30.13 in    
Wind  
Wind Speed 5 mph (SW)    
Max Wind Speed 16 mph    
Max Gust Speed 23 mph    
Visibility 10 miles    
Events      
T = Trace of Precipitation, MM = Missing Value Source: NWS Daily Summary

Daily Weather History Graph

Daily Weather History Graph

Search for Another Location

Airport or City:

Trip Planner

Search our weather history database for the weather conditions in past years. The results will help you decide how hot, cold, wet, or windy it might be!

Date:

Astronomy

May. 21, 2014 Rise Set
Actual Time 6:17 AM EDT 8:16 PM EDT
Civil Twilight 5:50 AM EDT 8:43 PM EDT
Nautical Twilight 5:16 AM EDT 9:17 PM EDT
Astronomical Twilight 4:41 AM EDT 9:52 PM EDT
Moon 1:34 AM EDT (5/21) 1:19 PM EDT (5/21)
Length of Visible Light 14h 53m
Length of Day
13h 58m
Waning Gibbous, 49% of the Moon is Illuminated
May 21
Waning Gibbous
May 28
New
Jun 5
First Quarter
Jun 13
Full
Jun 19
Last Quarter

Hourly Weather History & Observations

Time (EDT) Temp. Heat Index Dew Point Humidity Pressure Visibility Wind Dir Wind Speed Gust Speed Precip Events Conditions
12:15 AM 64.4 °F - 55.4 °F 73% 30.20 in 10.0 mi Calm Calm - 0.00 in   Clear
12:35 AM 62.6 °F - 55.4 °F 77% 30.19 in 10.0 mi Calm Calm - 0.00 in   Clear
12:55 AM 66.2 °F - 55.4 °F 68% 30.18 in 10.0 mi Calm Calm - 0.00 in   Clear
1:15 AM 66.2 °F - 55.4 °F 68% 30.18 in 10.0 mi Calm Calm - 0.00 in   Clear
1:35 AM 66.2 °F - 55.4 °F 68% 30.18 in 10.0 mi Calm Calm - 0.00 in   Clear
1:55 AM 62.6 °F - 55.4 °F 77% 30.17 in 10.0 mi Calm Calm - 0.00 in   Clear
2:15 AM 62.6 °F - 55.4 °F 77% 30.17 in 10.0 mi Calm Calm - 0.00 in   Clear
2:35 AM 60.8 °F - 55.4 °F 82% 30.17 in 10.0 mi Calm Calm - 0.00 in   Clear
2:55 AM 60.8 °F - 55.4 °F 82% 30.17 in 10.0 mi Calm Calm - 0.00 in   Clear
3:15 AM 60.8 °F - 55.4 °F 82% 30.16 in 10.0 mi Calm Calm - 0.00 in   Clear
3:35 AM 60.8 °F - 55.4 °F 82% 30.16 in 10.0 mi Calm Calm - 0.00 in   Clear
3:55 AM 60.8 °F - 55.4 °F 82% 30.16 in 10.0 mi Calm Calm - 0.00 in   Clear
4:15 AM 60.8 °F - 57.2 °F 88% 30.15 in 10.0 mi Calm Calm - 0.00 in   Clear
4:35 AM 60.8 °F - 57.2 °F 88% 30.15 in 10.0 mi Calm Calm - 0.00 in   Clear
5:15 AM 60.8 °F - 57.2 °F 88% 30.15 in 10.0 mi Calm Calm - 0.00 in   Clear
5:35 AM 60.8 °F - 57.2 °F 88% 30.15 in 10.0 mi Calm Calm - 0.00 in   Clear
5:55 AM 60.8 °F - 57.2 °F 88% 30.15 in 10.0 mi Calm Calm - 0.00 in   Clear
6:15 AM 62.6 °F - 57.2 °F 82% 30.15 in 10.0 mi Calm Calm - 0.00 in   Clear
6:35 AM 64.4 °F - 59.0 °F 83% 30.16 in 10.0 mi WSW 5.8 mph - 0.00 in   Clear
6:55 AM 64.4 °F - 59.0 °F 83% 30.17 in 10.0 mi Calm Calm - 0.00 in   Clear
7:35 AM 66.2 °F - 60.8 °F 83% 30.18 in 10.0 mi Calm Calm - 0.00 in   Clear
7:55 AM 68.0 °F - 62.6 °F 83% 30.19 in 10.0 mi Calm Calm - 0.00 in   Clear
8:15 AM 69.8 °F - 62.6 °F 78% 30.19 in 10.0 mi WSW 4.6 mph - 0.00 in   Clear
8:35 AM 71.6 °F - 62.6 °F 73% 30.19 in 10.0 mi WSW 3.5 mph - 0.00 in   Clear
8:55 AM 73.4 °F - 62.6 °F 69% 30.19 in 10.0 mi WSW 6.9 mph - 0.00 in   Clear
9:15 AM 73.4 °F - 60.8 °F 65% 30.19 in 10.0 mi WSW 11.5 mph 16.1 mph 0.00 in   Clear
9:35 AM 75.2 °F - 60.8 °F 61% 30.19 in 10.0 mi WSW 10.4 mph 16.1 mph 0.00 in   Clear
9:55 AM 75.2 °F - 57.2 °F 53% 30.20 in 10.0 mi WSW 11.5 mph 17.3 mph 0.00 in   Clear
10:15 AM 77.0 °F - 60.8 °F 57% 30.20 in 10.0 mi WSW 11.5 mph 16.1 mph 0.00 in   Clear
10:35 AM 78.8 °F - 60.8 °F 54% 30.20 in 10.0 mi West 11.5 mph - 0.00 in   Clear
10:55 AM 78.8 °F - 59.0 °F 51% 30.19 in 10.0 mi West 10.4 mph - 0.00 in   Clear
11:15 AM 78.8 °F - 60.8 °F 54% 30.19 in 10.0 mi SW 8.1 mph - 0.00 in   Clear
11:35 AM 80.6 °F 81.5 °F 60.8 °F 51% 30.18 in 10.0 mi WSW 10.4 mph - 0.00 in   Clear
11:55 AM 80.6 °F 81.5 °F 60.8 °F 51% 30.17 in 10.0 mi WSW 12.7 mph 18.4 mph 0.00 in   Clear
12:15 PM 82.4 °F 83.4 °F 62.6 °F 51% 30.17 in 10.0 mi SW 11.5 mph - 0.00 in   Clear
12:35 PM 84.2 °F 85.0 °F 62.6 °F 48% 30.16 in 10.0 mi WSW 8.1 mph 18.4 mph 0.00 in   Clear
12:55 PM 84.2 °F 85.0 °F 62.6 °F 48% 30.15 in 10.0 mi West 9.2 mph 16.1 mph 0.00 in   Clear
1:15 PM 84.2 °F 85.6 °F 64.4 °F 51% 30.14 in 10.0 mi South 13.8 mph 18.4 mph 0.00 in   Clear
1:35 PM 84.2 °F 86.6 °F 66.2 °F 55% 30.14 in 10.0 mi South 13.8 mph 18.4 mph 0.00 in   Partly Cloudy
1:55 PM 82.4 °F 84.6 °F 66.2 °F 58% 30.13 in 10.0 mi South 15.0 mph - 0.00 in   Partly Cloudy
2:15 PM 82.4 °F 84.6 °F 66.2 °F 58% 30.12 in 10.0 mi South 13.8 mph 20.7 mph 0.00 in   Partly Cloudy
2:35 PM 82.4 °F 84.6 °F 66.2 °F 58% 30.12 in 10.0 mi South 15.0 mph - 0.00 in   Partly Cloudy
2:55 PM 84.2 °F 86.6 °F 66.2 °F 55% 30.11 in 10.0 mi SSW 15.0 mph - 0.00 in   Clear
3:15 PM 82.4 °F 84.6 °F 66.2 °F 58% 30.11 in 10.0 mi SSW 16.1 mph 23.0 mph 0.00 in   Clear
3:35 PM 82.4 °F 84.6 °F 66.2 °F 58% 30.10 in 10.0 mi SW 16.1 mph 19.6 mph 0.00 in   Clear
3:55 PM 82.4 °F 84.6 °F 66.2 °F 58% 30.09 in 10.0 mi SSW 13.8 mph 20.7 mph 0.00 in   Clear
4:15 PM 82.4 °F 84.6 °F 66.2 °F 58% 30.09 in 10.0 mi SSW 13.8 mph - 0.00 in   Clear
4:35 PM 82.4 °F 84.6 °F 66.2 °F 58% 30.08 in 10.0 mi SSW 15.0 mph 20.7 mph 0.00 in   Clear
4:55 PM 82.4 °F 84.6 °F 66.2 °F 58% 30.08 in 10.0 mi SSW 13.8 mph - 0.00 in   Clear
5:15 PM 80.6 °F 82.7 °F 66.2 °F 61% 30.07 in 10.0 mi SSW 13.8 mph - 0.00 in   Clear
5:35 PM 80.6 °F 82.7 °F 66.2 °F 61% 30.06 in 10.0 mi SSW 13.8 mph - 0.00 in   Clear
5:55 PM 80.6 °F 82.7 °F 66.2 °F 61% 30.06 in 10.0 mi SSW 12.7 mph 20.7 mph 0.00 in   Clear
6:15 PM 80.6 °F 82.7 °F 66.2 °F 61% 30.05 in 10.0 mi SSW 13.8 mph 21.9 mph 0.00 in   Clear
6:35 PM 78.8 °F - 66.2 °F 65% 30.05 in 10.0 mi SSW 13.8 mph 18.4 mph 0.00 in   Clear
6:55 PM 78.8 °F - 66.2 °F 65% 30.05 in 10.0 mi SSW 13.8 mph 20.7 mph 0.00 in   Clear
7:15 PM 78.8 °F - 66.2 °F 65% 30.05 in 10.0 mi SSW 12.7 mph 21.9 mph 0.00 in   Clear
7:35 PM 77.0 °F - 66.2 °F 69% 30.05 in 10.0 mi SSW 10.4 mph 19.6 mph 0.00 in   Clear
7:55 PM 75.2 °F - 66.2 °F 73% 30.05 in 10.0 mi SSW 10.4 mph 19.6 mph 0.00 in   Clear
8:15 PM 75.2 °F - 64.4 °F 69% 30.05 in 10.0 mi SW 12.7 mph 18.4 mph 0.00 in   Clear
8:35 PM 75.2 °F - 66.2 °F 73% 30.05 in 10.0 mi SW 12.7 mph 19.6 mph 0.00 in   Clear
8:55 PM 75.2 °F - 66.2 °F 73% 30.05 in 10.0 mi SW 11.5 mph 18.4 mph 0.00 in   Clear
9:15 PM 73.4 °F - 66.2 °F 78% 30.05 in 10.0 mi SSW 9.2 mph - 0.00 in   Clear
9:35 PM 73.4 °F - 66.2 °F 78% 30.05 in 10.0 mi SW 10.4 mph 18.4 mph 0.00 in   Clear
9:55 PM 73.4 °F - 66.2 °F 78% 30.05 in 10.0 mi SW 11.5 mph 16.1 mph 0.00 in   Clear
10:15 PM 73.4 °F - 66.2 °F 78% 30.05 in 10.0 mi SW 11.5 mph 16.1 mph 0.00 in   Clear
10:35 PM 73.4 °F - 66.2 °F 78% 30.06 in 10.0 mi SW 13.8 mph 20.7 mph 0.00 in   Clear
10:55 PM 73.4 °F - 66.2 °F 78% 30.05 in 10.0 mi SW 13.8 mph 19.6 mph 0.00 in   Clear
11:15 PM 73.4 °F - 66.2 °F 78% 30.05 in 10.0 mi SW 12.7 mph 18.4 mph 0.00 in   Clear
11:35 PM 73.4 °F - 66.2 °F 78% 30.06 in 10.0 mi SW 10.4 mph - 0.00 in   Clear
11:55 PM 73.4 °F - 66.2 °F 78% 30.05 in 10.0 mi SW 12.7 mph 17.3 mph 0.00 in   Clear